Regional Weather Roundup
Issued by NWS Boston, MA

Home | Current Version | Previous Version | Text Only | Print | Product List | Glossary On
Versions: 1 2 3 4 5 6 7 8 9 10 11 12 13 14 15 16 17 18 19 20 21 22 23 24 25 26 27 28 29 30 31 32 33 34 35 36 37 38 39 40 41 42 43 44 45 46 47 48 49 50
604
ASUS41 KBOX 110710
RWRBOX

REGIONAL WEATHER ROUNDUP
NATIONAL WEATHER SERVICE TAUNTON MA
200 AM EST THU FEB 11 2016

NOTE:  "FAIR" INDICATES FEW OR NO CLOUDS BELOW 12,000 FEET WITH NO
SIGNIFICANT WEATHER AND/OR OBSTRUCTIONS TO VISIBILITY.  THE FOLLOWING
OBSERVATION LOCATIONS DO NOT REPORT PRESENT WEATHER...PROVINCETOWN...
SMITHFIELD...BLOCK ISLAND...KEENE...AND OXFORD.

MAZALL-110800-
EASTERN MASSACHUSETTS

CITY           SKY/WX    TMP DP  RH WIND       PRES   REMARKS
BOSTON         CLEAR     30  19  63 W12       29.65S WCI  20
BEVERLY        CLEAR     27  17  66 W7        29.63S WCI  19
LAWRENCE       CLEAR     26  18  71 W7        29.64F WCI  18
BEDFORD        CLEAR     25  15  66 W7        29.64R WCI  17
BLUE HILL        N/A     23  18  81 W12       29.61R WCI  12
NORWOOD        CLEAR     25  18  74 W7        29.66R WCI  17
MARSHFIELD     NOT AVBL
PLYMOUTH       CLEAR     27  20  75 W7        29.65S WCI  19
TAUNTON        CLEAR     27  18  69 W5        29.65S WCI  22
NEW BEDFORD    CLEAR     25  19  78 W7        29.66S WCI  17
$$

MAZALL-110800-
CAPE COD AND THE ISLANDS

CITY           SKY/WX    TMP DP  RH WIND       PRES   REMARKS
FALMOUTH       PTCLDY    27  21  80 W7        29.65F WCI  19
HYANNIS        CLOUDY    30  24  78 W7        29.63F WCI  23
CHATHAM        CLOUDY    30  26  85 W5        29.65S WCI  25
PROVINCETOWN   CLEAR     32  22  66 W20G25    29.64S WCI  20
NANTUCKET      CLOUDY    34  25  69 NW8       29.64F WCI  27
MARTHAS VNYRD  PTCLDY    30  20  66 NW9       29.65F WCI  22
$$

MAZALL-110800-
CENTRAL AND WESTERN MASSACHUSETTS

CITY           SKY/WX    TMP DP  RH WIND       PRES   REMARKS
WORCESTER      CLEAR     21  14  74 W13       29.60F WCI   9
FITCHBURG      CLEAR     25  15  66 W9        29.64F WCI  15
ORANGE         CLOUDY    24  15  68 NW3       29.65S
SPRINGFIELD    MOCLDY    24  13  62 NW5       29.66F WCI  18
WESTFIELD      MOCLDY    25  13  60 W5        29.67F WCI  19
NORTH ADAMS    CLOUDY    23  13  65 W8        29.67R WCI  14
PITTSFIELD     CLOUDY    22  10  60 NW12G18   29.62S WCI  10
$$

RIZALL-110800-
RHODE ISLAND

CITY           SKY/WX    TMP DP  RH WIND       PRES   REMARKS
PROVIDENCE     PTCLDY    27  18  69 W5        29.67F WCI  22
NEWPORT        CLEAR     30  20  66 NW6       29.66F WCI  24
BLOCK ISLAND   PTCLDY    32  18  55 NW13G18   29.67S WCI  22
SMITHFIELD     PTCLDY    25  16  68 W8        29.63F WCI  16
WESTERLY       CLEAR     25  20  81 W3        29.69F
$$

CTZALL-110800-
CONNECTICUT

CITY           SKY/WX    TMP DP  RH WIND       PRES   REMARKS
BRADLEY INTL   MOCLDY    26  14  60 W8        29.67F WCI  18
HARTFORD       CLOUDY    30  16  56 NW3       29.70S
BRIDGEPORT     CLOUDY    32  21  64 W12       29.71S WCI  23
DANBURY        LGT SNOW  27  18  69 W12       29.71S WCI  17
GROTON         CLEAR     21  21 100 CALM      29.69F
NEW HAVEN      CLOUDY    32  21  64 VRB3      29.70S
CHESTER        MOCLDY    28  19  69 NW3       29.68S
MERIDEN        CLOUDY    22  19  89 CALM      29.69F
WILLIMANTIC    CLEAR     24  15  68 NW5       29.67F WCI  18
OXFORD         CLOUDY    27  14  59 W5        29.68S WCI  21
$$

MEZ002-015-021-024-NHZ003-005-008-011-012-014-VTZ005-008-110800-
NORTHERN NEW ENGLAND

CITY           SKY/WX    TMP DP  RH WIND       PRES   REMARKS
PORTLAND ME    MOCLDY    27  20  75 W7        29.59R WCI  19
BANGOR ME      LGT SNOW  28  27  96 NW6       29.54S FOG     WCI  22
CONCORD NH     CLEAR     23  12  62 NW7       29.62R WCI  15
MANCHESTER NH  CLEAR     25  19  78 CALM      29.62S
NASHUA NH      CLEAR     21  19  93 W6        29.64S WCI  14
PORTSMOUTH NH  PTCLDY    26  17  66 W8        29.61R WCI  18
JAFFREY NH     CLEAR     17  14  88 S5        29.60S WCI  10
KEENE NH       MOCLDY    21  16  79 MISG      29.64S
BURLINGTON VT  FLURRIES  22  18  85 CALM      29.65S
MT. WASHINGTON SNOWSHWR  -2  -2 100 W28         N/A  VSB 1/16WCI -28
$$

NYZ052-076-110800-
EASTERN NEW YORK

CITY           SKY/WX    TMP DP  RH WIND       PRES   REMARKS
ALBANY         CLOUDY    26  11  52 NW7G20    29.71R WCI  18
NEW YORK CITY  LGT SNOW  28  19  69 W20G26    29.76R WCI  15
$$

ANZALL-110800-
MARINE OBSERVATIONS

STATION/POSITION TIME  TEMP    WIND        PRES    VSBY  WAVE
                       AIR SEA DIR/SP/G                  HT/PER
                 (UTC) (F)     (DEG/KT/KT) (MB)    (MI)  (FT/S)
BOSTON BUOY      0550   33 41  280/ 17/ 21 1003.1          3/11
BUZZARDS BAY     0600          300/ 16/ 18 1005.4R
NANTUCKET SOUND  0650   35 41  300/ 17/ 19 1003.3F         2/ 3
MASS BAY-STELLWA 0604   33 42  270/ 17/ 21   N/A    1 7/8  4/10
ISLE OF SHOALS   0600   31     270/ 18/ 20 1001.9R
S OF BLOCK IS    NOT AVBL
$$

......................KEY.........................
  SKY/WX - SKY CONDITION/PRESENT WEATHER
  TMP    - TEMPERATURE IN FAHRENHEIT
  DWPT   - DEWPOINT IN FAHRENHEIT
  RH     - RELATIVE HUMIDITY IN PERCENT
  WIND   - DIRECTION AND SPEED IN MPH
  PRES   - MEAN SEA LEVEL PRESSURE IN INCHES OF HG
  WCI    - WIND CHILL INDEX
  VSB    - VISIBILITY IN MILES
  HX     - HEAT INDEX
  TC     - TEMPERATURE IN CELSIUS
  VRB    - VARIABLE WIND DIRECTION
  N/A    - NOT AVAILABLE




USA.gov is the U.S. government's official web portal to all federal, state and local government web resources and services.